Hourly Weather Roundup
Issued by NWS Central Illinois

Home | Current Version | Previous Version | Text Only | Print | Product List | Glossary On
Versions: 1 2 3 4 5 6 7 8 9 10 11 12 13 14 15 16 17 18 19 20 21 22 23 24 25 26 27 28 29 30 31 32 33 34 35 36 37 38 39 40 41 42 43 44 45 46 47 48 49 50
000
NZUS43 KILX 250310
HWRILX

AREA WEATHER ROUNDUP
NATIONAL WEATHER SERVICE, LINCOLN IL
1000 PM CDT THU APR 24 2014


CITY           SKY/WX    TMP DP  RH WIND       PRES   REMARKS
BLOOMINGTON    LGT RAIN  59  51  74 SE9       29.64F
CHAMPAIGN      LGT RAIN  63  47  55 SW12      29.67R
DANVILLE       CLOUDY    60  43  54 SE13      29.63F
DECATUR        LGT RAIN  60  56  86 SW7       29.67S
FLORA          LGT RAIN  60  57  88 W12G17    29.72R
GALESBURG      CLOUDY    53  53 100 N13       29.64R
JACKSONVILLE   CLOUDY    57  56  95 S5        29.65R
LACON          LGT RAIN  58  50  73 E12       29.58F
LAWRENCEVILLE  CLOUDY    69  39  33 SE13      29.66F
LITCHFIELD     HVY RAIN  56  55  98 E8        29.66F
$$


CITY           SKY/WX    TMP DP  RH WIND       PRES   REMARKS
LINCOLN        RAIN      60  57  89 S7        29.62F
MACOMB         CLOUDY    53  53  99 NW10      29.67R FOG
MATTOON        LGT RAIN  59  52  77 SW7G20    29.69R
MT CARMEL AP   CLOUDY    70  41  35 SE10      29.66F
OLNEY-NOBLE AP LGT RAIN  66  45  45 SW7       29.68R
PARIS          CLOUDY    65  42  43 SE6       29.66F
PEORIA         CLOUDY    60  53  77 S7        29.59S
PONTIAC        CLOUDY    57  48  72 E9        29.65F
RANTOUL        LGT RAIN  63  45  52 CALM      29.66R
ROBINSON       CLOUDY    69  41  36 SE10      29.67F
SPRINGFIELD    LGT RAIN  59  56  89 CALM      29.64S
TAYLORVILLE    RAIN      55  54  94 SE8       29.67S
$$

...REGIONAL REPORTS...


CITY           SKY/WX    TMP DP  RH WIND       PRES   REMARKS
CHICAGO O`HARE CLOUDY    56  34  43 SE14      29.68F
KANKAKEE       CLOUDY    59  37  43 E9        29.69S
MOLINE         LGT RAIN  54  51  90 N5        29.65R
MOUNT VERNON   CLOUDY    59  50  72 W6        29.75R
PITTSFIELD     CLOUDY    58  55  89 W9        29.66R
QUINCY         CLOUDY    54  53  97 NW17G25   29.66R
ROCKFORD       LGT RAIN  54  45  71 S8        29.69F
$$


CITY           SKY/WX    TMP DP  RH WIND       PRES   REMARKS
BURLINGTON     CLOUDY    53  52  96 NW9       29.66R
CEDAR RAPIDS   CLOUDY    49  46  90 NW13      29.70R
DES MOINES     CLOUDY    50  44  80 NW7       29.78R
KIRKSVILLE     CLOUDY    51  46  83 NW14G23   29.74R
OTTUMWA        CLOUDY    49  45  86 NW17      29.72R
ST LOUIS       LGT RAIN  60  56  86 SW5       29.68R
$$


CITY           SKY/WX    TMP DP  RH WIND       PRES   REMARKS
TERRE HAUTE    CLOUDY    64  39  39 SE7       29.67F
EVANSVILLE     CLOUDY    71  40  32 S7        29.69R
INDIANAPOLIS   MOCLDY    59  36  42 E16       29.72F
LAFAYETTE      CLOUDY    58  41  53 SE12      29.70F
MADISON        LGT RAIN  48  46  93 CALM      29.69S FOG
MILWAUKEE      LGT RAIN  45  35  68 SE16      29.73S
$$




USA.gov is the U.S. government's official web portal to all federal, state and local government web resources and services.